Regional Weather Roundup
Issued by NWS Grand Forks, ND

Home | Current Version | Previous Version | Graphics & Text | Print | Product List | Glossary On
Versions: 1 2 3 4 5 6 7 8 9 10 11 12 13 14 15 16 17 18 19 20 21 22 23 24 25 26 27 28 29 30 31 32 33 34 35 36 37 38 39 40 41 42 43 44 45 46 47 48 49 50
894
ASUS43 KFGF 010510
RWRFGF
PRAIRIE TO PINES  WEATHER ROUNDUP
NATIONAL WEATHER SERVICE EASTERN NORTH DAKOTA/GRAND FORKS ND
1200 AM CDT SUN MAY 01 2016

 **SATELLITE DATA USED TO AUGMENT SKY COVER AT AUTOMATED STATIONS**
 *****  WEATHER ACROSS EASTERN NORTH DAKOTA  *****

CITY           SKY/WX    TMP DP  RH WIND       PRES   REMARKS
GRAND FORKS    CLEAR     48  28  46 NE9       30.25S
GRAND FRKS AFB CLEAR     45  26  46 E7        30.26R
DEVILS LAKE    CLEAR     42  30  62 NE5       30.29R
FARGO          CLEAR     49  28  44 NE13      30.20S
WAHPETON ARPT  CLEAR     45  30  57 E6        30.20R
$$

 ***** WEATHER ACROSS CENTRAL AND WESTERN NORTH DAKOTA  *****

CITY           SKY/WX    TMP DP  RH WIND       PRES   REMARKS
BISMARCK       CLEAR     39  31  72 E5        30.27R
MINOT          CLEAR     43  27  53 N7        30.30R
JAMESTOWN      CLEAR     40  28  62 NE9       30.23R
MINOT AFB      CLEAR     45  29  55 N8        30.30R
GARRISON         N/A     38  29  70 N7        30.29R
WILLISTON      CLEAR     41  30  65 N5        30.31R
DICKINSON      CLEAR     43  26  51 NE5       30.27S
HETTINGER      CLEAR     32  26  78 CALM      30.28R
$$

 *****  OTHER AIRPORT OBSERVATIONS IN OUR AREA  *****

CITY           SKY/WX    TMP DP  RH WIND       PRES   REMARKS
WALHALLA       FAIR      41  32  70 NW3       30.31R
GRAFTON AIRPOR FAIR      43  28  56 N6        30.29S
VALLEY CITY AR FAIR      45  28  53 NE13      30.24S
CANDO          FAIR      37  28  70 N9        30.32S
CAVALIER APRT  FAIR      39  30  70 CALM      30.29S
GWINNER        FAIR      46  32  57 N9        30.20R
SHEYENNE NWR     N/A     49  28  44 NE7       29.95S
ROLLA          FAIR      36  25  64 N5        30.32S
 ***** THE ABOVE OBSERVATIONS ARE NON NWS ARE NOT QUALITY
       CONTROLLED AND MAY MIS-REPORT RAIN FOR SNOW...
$$

  *****  WEATHER ACROSS NORTHERN MINNESOTA  *****

CITY           SKY/WX    TMP DP  RH WIND       PRES   REMARKS
FLAG ISLAND    CLEAR     45  34  65 N3        30.28S
WARROAD        CLEAR     43  36  75 N6        30.28S
ROSEAU         CLEAR     41  30  65 N3        30.28S
HALLOCK        CLEAR     39  27  60 N6        30.29R
THF RVR FALLS  CLEAR     45  27  49 NE9       30.27S
BAUDETTE       CLEAR     43  26  51 NE8       30.26S
WASKISH        CLEAR     45  28  53 NE6       30.24F
CROOKSTON      CLEAR     45  28  53 NE7       30.26S
STEPHEN NDAWN    N/A     36  25  64 NE3         N/A
GREENBUSH NDAW   N/A     37  32  81 N2          N/A
$$
  *****  WEATHER ACROSS CENTRAL AND WEST MINNESOTA  *****

CITY           SKY/WX    TMP DP  RH WIND       PRES   REMARKS
FOSSTON        CLEAR     43  28  56 NE6       30.23F
BEMIDJI        CLEAR     41  30  63 E3        30.23S
PARK RAPIDS    CLEAR     45  29  53 E6        30.21R
ELBOW LAKE     FAIR      45  31  59 NE5       30.19R
WADENA         CLEAR     39  28  65 NE5       30.20S
DETROIT LAKES  CLEAR     46  32  57 SE6       30.21S
MOORHEAD       CLEAR     46  28  49 NE8       30.21S
FERGUS FALLS   CLEAR     46  30  53 E3        30.18S
MORRIS MN      CLOUDY    46  30  53 E17       30.16S
STAPLES        CLOUDY    43  27  52 E6        30.20S
$$
  *****  WEATHER ELSEWHERE ACROSS MINNESOTA  *****

CITY           SKY/WX    TMP DP  RH WIND       PRES   REMARKS
DULUTH         PTCLDY    37  26  64 NE10      30.21F
INTRNTL FALLS  CLEAR     42  28  57 NE5       30.25S
ELY            CLEAR     28  27  93 CALM      30.24S
CLOQUET        PTCLDY    37  27  65 NE8       30.21S
WHEATON        CLOUDY    46  32  57 NE5       30.20S
BRAINERD       CLOUDY    40  26  57 E7        30.21S
HIBBING        CLEAR     28  25  88 CALM      30.23S
ALEXANDRIA     CLOUDY    43  27  53 E15G23    30.18S
SAINT CLOUD    CLOUDY    42  27  55 NE15G24   30.15R
MINNEAPOLIS    CLOUDY    47  30  51 NE14G21   30.12R
$$

  *****  WEATHER ACROSS SOUTH DAKOTA  *****

CITY           SKY/WX    TMP DP  RH WIND       PRES   REMARKS
SIOUX FALLS    CLOUDY    44  40  85 NE12      30.08R
BROOKINGS      CLOUDY    45  34  65 NE10      30.09R
WATERTOWN      CLOUDY    44  30  57 NE16G23   30.12S
HURON          CLOUDY    45  37  73 NE8       30.12R
SISSETON         N/A     39  31  72 CALM      30.18R
ABERDEEN       CLEAR     42  33  70 NE8       30.19R
MITCHELL       LGT RAIN  45  42  89 E8        30.12R
PIERRE         CLOUDY    42  34  73 N9        30.15R
MOBRIDGE       CLEAR     43  32  65 N10       30.19R
RAPID CITY     CLOUDY    39  31  72 N9        30.23R
$$

  *****  SOME WEATHER IN NEARBY STATES *****

CITY           SKY/WX    TMP DP  RH WIND       PRES   REMARKS
GLASGOW MT     CLEAR     45  30  55 E6        30.31S
GREAT FALLS MT CLEAR     42  33  70 E6        30.33R
CHEYENNE WY    LGT SNOW  31  29  92 N14G26    30.18R FOG     WCI  21
SCOTTSBLUFF NE LGT RAIN  38  34  85 N13       30.19R
OMAHA NE       LGT RAIN  48  46  93 NE13      29.89R
DES MOINES IA  DRIZZLE   46  43  89 NE13      29.92R FOG
DAVENPORT IA   CLOUDY    45  43  93 E13       29.92R
CHICAGO IL     CLOUDY    45  44  97 NE15      29.91F FOG
EAU CLAIRE WI  CLOUDY    50  34  54 NE14      30.08S
LA CROSSE WI   LGT RAIN  44  40  85 N6        30.06S
$$

  *****  SOME NATIONAL WEATHER *****

CITY           SKY/WX    TMP DP  RH WIND       PRES   REMARKS
LA GUARDIA NY  CLOUDY    51  37  58 S7        30.24S
RALEIGH NC     CLOUDY    61  55  81 SE8       30.13F
ATLANTA GA     CLOUDY    69  65  86 SE7       29.99R
NEW ORLEANS LA PTCLDY    71  66  84 S6        29.87R
OKLAHOMA CITY  CLEAR     57  43  59 N6        29.96R
ALBUQUERQUE NM CLOUDY    52  39  61 E23G30    29.90S
SALT LAKE CITY CLOUDY    53  27  36 E10G21    30.00R
LOS ANGELES CA PTCLDY    59  52  77 CALM      29.84R
BOISE ID       PTCLDY    52  37  56 NW8       30.07R
SEATTLE WA     PTCLDY    59  42  53 N9        30.31R
$$

*** WEATHER ACROSS MANITOBA...SASKATCHEWAN AND ONTARIO ***
                ***ONTARIO***

CITY           SKY/WX    TMP DP  RH WIND       PRES   REMARKS
GERALDTON      MOCLDY    37  32  81 NE7       30.32S
THUNDER BAY    CLEAR     37  27  65 NE6       30.27F
SIOUX LOOKOUT  NOT AVBL
TORONTO        CLOUDY    52  30  43 E10       30.06F
BIG TROUT LK   CLEAR     32  27  80 E6        30.34F
PICKLE LAKE    NOT AVBL
DRYDEN         CLEAR     41  32  70 NE6       30.29S
KENORA         CLEAR     45  25  45 NE7       30.29S
$$
                *** MANITOBA***

CITY           SKY/WX    TMP DP  RH WIND       PRES   REMARKS
BRANDON        CLEAR     34  21  60 N9        30.34S
DAUPHIN        CLEAR     36  25  64 SW3       30.35S
ISLAND LAKE    PTCLDY    41  28  60 SE2       30.31R
PILOT MOUND      N/A     46  27  46 NE7         N/A
THE PAS        PTCLDY    46  32  57 S8        30.29S
THOMPSON       CLEAR     46  27  46 CALM      30.22F
WINNIPEG       CLEAR     41  30  65 N8        30.32S
LYNN LAKE      CLEAR     48  23  37 SW7       30.18F
CHURCHILL      MOCLDY    27  25  93 SE16      30.31F WCI  14
$$
                ***SASKATCHEWAN***

CITY           SKY/WX    TMP DP  RH WIND       PRES   REMARKS
ESTEVAN        NOT AVBL
KINDERSLEY     CLEAR     46  34  61 W2        30.29S
LLOYDMINSTER   PTCLDY    46  36  66 SW8       30.25F
PRINCE ALBERT  PTCLDY    52  28  40 S7        30.26R
REGINA         CLEAR     46  25  42 E8        30.33R
YORKTON        CLEAR     46  28  49 SE6       30.35R
N. BATTLEFORD  MOCLDY    48  34  57 SW2       30.29R
LA RONGE       PTCLDY    52  27  37 S9        30.19S
SASKATOON      CLEAR     48  27  43 S8        30.29S
SWIFT CURRENT  CLEAR     46  27  46 S9        30.31R
$$
NOTE: THESE ARE AUTOMATED STATIONS WITH LIMITED QUALITY CONTROL
      "FAIR" INDICATES FEW OR NO CLOUDS BELOW 12,000 FEET WITH NO
      SIGNIFICANT WEATHER AND/OR OBSTRUCTIONS TO VISIBILITY.
      SKY/WX - SKY CONDITION AND SIGNIFICANT WEATHER.
      TMP - AIR TEMPERATURE.    DP   - DEWPOINT TEMPERATURE.
      RH  - RELATIVE HUMIDITY.  PRES - PRESSURE.
      HX  - HEAT INDEX.         WCI  - WIND CHILL INDEX.
$




USA.gov is the U.S. government's official web portal to all federal, state and local government web resources and services.